Latest Weather Observations for Frankston

IDV60801

Issued at 10:31 am EDT Monday 22 December 2014 (issued every 30 minutes, with the page automatically refreshed every 10 minutes)

About weather observations | Map of weather stations | Latest weather observations for VIC | Other Formats
Station Details ID: 086371 Name: FRANKSTON AWS Lat: -38.15 Lon: 145.12 Height: 6.0 m
Data from the previous 72 hours. | See also: Recent months at Frankston
Date/Time
EDT
Temp
°C
App
Temp
°C
Dew
Point
Rel
Hum
%
Delta-T
°C
Wind Press
QNH
hPa
Press
MSL
hPa
Rain
since 9 am
mm
Dir
 
Spd
km/h
Gust
km/h
Spd
kts
Gust
kts
22/10:30am 19.7 20.7 16.3 81 2.0 NW 6 9 3 5 - - -
22/10:00am 18.4 18.4 15.3 82 1.8 WNW 9 13 5 7 - - -
22/09:30am 19.6 20.5 16.1 80 2.1 W 6 11 3 6 - - -
22/09:00am 19.4 20.8 16.4 83 1.8 SSE 4 6 2 3 - - -
22/08:30am 18.1 18.7 15.7 86 1.4 SE 7 11 4 6 - - -
22/08:00am 17.7 18.4 15.5 87 1.3 SE 6 9 3 5 - - -
22/07:30am 17.4 18.8 15.4 88 1.2 S 2 7 1 4 - - -
22/07:00am 17.0 17.9 15.0 88 1.2 SSE 4 9 2 5 - - -
22/06:30am 16.9 18.1 14.9 88 1.2 S 2 6 1 3 - - -
22/06:00am 16.6 17.3 14.6 88 1.1 SSE 4 7 2 4 - - -
22/05:30am 16.5 16.8 14.5 88 1.1 S 6 11 3 6 - - -
22/05:00am 16.6 17.3 14.4 87 1.3 SSE 4 13 2 7 - - -
22/04:30am 16.6 16.9 14.4 87 1.3 SW 6 9 3 5 - - -
22/04:00am 16.7 18.1 14.5 87 1.3 CALM 0 4 0 2 - - -
22/03:30am 16.5 17.4 14.0 85 1.4 SSW 2 4 1 2 - - -
22/03:00am 16.6 17.0 13.7 83 1.6 SSE 4 9 2 5 - - -
22/02:30am 16.8 17.1 13.5 81 1.9 S 4 6 2 3 - - -
22/02:00am 17.2 17.9 13.5 79 2.1 SSE 2 6 1 3 - - -
22/01:30am 17.4 17.7 13.5 78 2.2 S 4 7 2 4 - - -
22/01:00am 17.6 18.0 13.7 78 2.2 SW 4 7 2 4 - - -
22/12:30am 17.7 17.6 13.8 78 2.2 S 7 15 4 8 - - -
22/12:00am 18.1 18.9 13.8 76 2.4 W 2 11 1 6 - - -
 
Date/Time
EDT
Temp
°C
App
Temp
°C
Dew
Point
Rel
Hum
%
Delta-T
°C
Wind Press
QNH
hPa
Press
MSL
hPa
Rain
since 9 am
mm
Dir
 
Spd
km/h
Gust
km/h
Spd
kts
Gust
kts
21/11:30pm 18.8 18.7 13.2 70 3.2 SSW 6 15 3 8 - - -
21/11:00pm 19.6 19.1 12.1 62 4.2 S 6 17 3 9 - - -
21/10:30pm 20.5 18.6 11.7 57 4.9 SSE 13 28 7 15 - - -
21/10:00pm 21.8 19.3 9.7 46 6.5 S 13 26 7 14 - - -
21/09:30pm 22.9 20.2 9.0 41 7.4 S 13 28 7 15 - - -
21/09:00pm 23.6 21.3 10.6 44 7.2 S 13 22 7 12 - - -
21/08:30pm 24.6 23.6 12.2 46 7.1 S 9 19 5 10 - - -
21/08:00pm 25.8 24.0 10.8 39 8.4 SSE 11 20 6 11 - - -
21/07:30pm 25.9 24.4 13.1 45 7.5 SSE 13 28 7 15 - - -
21/07:00pm 26.6 25.5 13.0 43 7.9 S 11 20 6 11 - - -
21/06:30pm 26.8 25.0 12.1 40 8.5 SSE 13 22 7 12 - - -
21/06:00pm 28.1 26.6 13.2 39 8.8 SE 13 20 7 11 - - -
21/05:30pm 27.5 26.0 14.2 44 8.0 SSE 15 28 8 15 - - -
21/05:00pm 28.7 27.2 14.1 40 8.8 SE 15 24 8 13 - - -
21/04:30pm 27.9 25.9 10.1 33 10.0 WSW 11 13 6 7 - - -
21/04:00pm 28.3 27.1 9.6 31 10.4 WSW 6 9 3 5 - - -
21/03:30pm 28.0 25.9 9.8 32 10.2 WSW 11 13 6 7 - - -
21/03:00pm 25.7 25.9 13.2 46 7.3 W 4 9 2 5 - - -
21/02:30pm 24.6 24.6 12.5 46 6.9 W 4 6 2 3 - - -
21/02:00pm 24.8 24.6 11.7 44 7.4 W 4 9 2 5 - - -
21/01:30pm 25.3 24.8 9.2 36 8.8 WSW 2 4 1 2 - - -
21/01:00pm 22.9 21.9 12.2 51 6.1 WSW 9 11 5 6 - - -
21/12:30pm 22.7 23.8 15.5 64 4.3 WSW 4 6 2 3 - - -
21/12:00pm 19.8 20.1 15.0 74 2.8 WSW 7 9 4 5 - - -
21/11:30am 19.0 19.1 14.5 75 2.6 WSW 7 9 4 5 - - -
21/11:00am 18.4 18.2 13.7 74 2.7 WSW 7 9 4 5 - - -
21/10:30am 18.4 18.8 13.7 74 2.7 WNW 4 6 2 3 - - -
21/10:00am 18.2 17.8 13.1 72 2.9 NW 7 9 4 5 - - -
21/09:30am 20.1 20.1 13.6 66 3.7 NE 6 9 3 5 - - -
21/09:00am 18.2 18.0 12.9 71 3.0 E 6 9 3 5 - - -
21/08:30am 16.5 15.9 12.3 76 2.3 E 7 13 4 7 - - -
21/08:00am 16.0 15.1 12.6 80 1.9 E 9 15 5 8 - - -
21/07:30am 15.2 14.7 12.5 84 1.5 E 7 11 4 6 - - -
21/07:00am 14.5 14.9 12.4 87 1.1 E 2 6 1 3 - - -
21/06:30am 13.3 13.7 11.4 88 1.0 CALM 0 0 0 0 - - -
21/06:00am 13.6 14.1 11.7 88 1.0 CALM 0 0 0 0 - - -
21/05:30am 13.5 13.6 11.6 88 1.0 E 2 4 1 2 - - -
21/05:00am 13.5 12.9 11.7 89 1.0 ESE 6 9 3 5 - - -
21/04:30am 13.4 12.8 11.6 89 1.0 ESE 6 9 3 5 - - -
21/04:00am 13.5 13.2 11.6 88 1.0 E 4 6 2 3 - - -
21/03:30am 13.8 13.6 11.7 87 1.1 E 4 6 2 3 - - -
21/03:00am 14.1 13.6 12.0 87 1.1 E 6 7 3 4 - - -
21/02:30am 14.2 14.0 11.7 85 1.3 ESE 4 6 2 3 - - -
21/02:00am 14.5 14.7 11.8 84 1.5 ESE 2 4 1 2 - - -
21/01:30am 14.7 15.3 12.0 84 1.5 CALM 0 0 0 0 - - -
21/01:00am 14.9 15.5 12.0 83 1.6 CALM 0 0 0 0 - - -
21/12:30am 15.0 15.6 12.0 82 1.6 CALM 0 0 0 0 - - -
21/12:00am 15.1 15.3 11.9 81 1.7 SE 2 6 1 3 - - -
 
Date/Time
EDT
Temp
°C
App
Temp
°C
Dew
Point
Rel
Hum
%
Delta-T
°C
Wind Press
QNH
hPa
Press
MSL
hPa
Rain
since 9 am
mm
Dir
 
Spd
km/h
Gust
km/h
Spd
kts
Gust
kts
20/11:30pm 15.4 16.0 12.0 80 1.8 CALM 0 0 0 0 - - -
20/11:00pm 15.5 15.3 11.9 79 2.0 SW 4 7 2 4 - - -
20/10:30pm 15.6 15.7 11.6 77 2.2 SSW 2 6 1 3 - - -
20/10:00pm 15.8 15.5 11.6 76 2.3 SE 4 7 2 4 - - -
20/09:30pm 16.0 15.1 11.4 74 2.5 SSE 7 13 4 7 - - -
20/09:00pm 16.4 15.5 11.3 72 2.7 S 7 13 4 7 - - -
20/08:30pm 17.0 15.7 11.3 69 3.1 S 9 13 5 7 - - -
20/08:00pm 17.7 16.4 11.3 66 3.5 S 9 17 5 9 - - -
20/07:30pm 18.1 16.3 11.0 63 3.8 SSE 11 19 6 10 - - -
20/07:00pm 19.4 18.3 11.9 62 4.2 SSE 9 17 5 9 - - -
20/06:30pm 20.5 19.6 12.5 60 4.5 S 9 17 5 9 - - -
20/06:00pm 20.2 19.1 11.9 59 4.6 SSW 9 17 5 9 - - -
20/05:30pm 20.7 19.6 11.9 57 4.9 SSE 9 17 5 9 - - -
20/05:00pm 18.6 14.9 12.8 69 3.3 WSW 24 32 13 17 - - -
20/04:30pm 20.2 17.7 12.4 61 4.4 WSW 17 24 9 13 - - -
20/04:00pm 18.2 15.2 12.6 70 3.1 WSW 20 26 11 14 - - -
20/03:30pm 18.2 15.1 11.5 65 3.7 W 19 22 10 12 - - -
20/03:00pm 18.4 15.4 10.8 61 4.1 WSW 17 20 9 11 - - -
20/02:30pm 17.3 15.1 9.2 59 4.2 WSW 11 13 6 7 - - -
20/02:00pm 16.8 14.2 9.5 62 3.8 WNW 13 19 7 10 - - -
20/01:30pm 16.7 14.5 9.4 62 3.8 WNW 11 15 6 8 - - -
20/01:00pm 16.4 14.1 9.1 62 3.8 W 11 17 6 9 - - -
20/12:30pm 16.3 13.7 9.3 63 3.6 WSW 13 17 7 9 - - -
20/12:00pm 16.4 14.1 9.1 62 3.8 W 11 17 6 9 - - -
20/11:30am 16.2 14.0 9.2 63 3.6 W 11 15 6 8 - - -
20/11:00am 16.2 13.7 9.6 65 3.4 W 13 19 7 10 - - -
20/10:30am 16.0 13.0 9.2 64 3.5 W 15 19 8 10 - - -
20/10:00am 15.8 13.2 9.5 66 3.3 W 13 17 7 9 - - -
20/09:30am 15.6 12.7 9.5 67 3.2 WSW 15 19 8 10 - - -
20/09:00am 15.6 13.1 9.7 68 3.1 WSW 13 17 7 9 - - -
20/08:30am 15.1 14.5 10.3 73 2.5 WNW 4 9 2 5 - - -
20/08:00am 15.2 15.0 10.4 73 2.5 ENE 2 4 1 2 - - -
20/07:30am 13.8 13.0 9.5 75 2.2 E 4 6 2 3 - - -
20/07:00am 13.1 12.1 8.8 75 2.2 ESE 4 6 2 3 - - -
20/06:30am 13.3 11.9 8.8 74 2.3 ESE 6 7 3 4 - - -
20/06:00am 13.1 11.6 8.6 74 2.2 ESE 6 6 3 3 - - -
20/05:30am 13.2 11.8 8.7 74 2.3 E 6 7 3 4 - - -
20/05:00am 13.2 11.8 8.7 74 2.3 E 6 9 3 5 - - -
20/04:30am 13.1 11.6 8.6 74 2.2 ESE 6 7 3 4 - - -
20/04:00am 12.7 11.5 8.2 74 2.2 ESE 4 7 2 4 - - -
20/03:30am 13.1 12.0 8.4 73 2.3 E 4 6 2 3 - - -
20/03:00am 13.4 12.4 8.7 73 2.4 ENE 4 7 2 4 - - -
20/02:30am 13.7 12.3 9.0 73 2.4 SSE 6 7 3 4 - - -
20/02:00am 13.6 12.2 8.9 73 2.4 SSE 6 9 3 5 - - -
20/01:30am 13.1 11.4 8.4 73 2.3 SSE 7 9 4 5 - - -
20/01:00am 12.9 11.2 8.2 73 2.3 SE 7 9 4 5 - - -
20/12:30am 12.9 11.7 8.0 72 2.4 SE 4 6 2 3 - - -
20/12:00am 13.3 12.1 8.2 71 2.5 SE 4 6 2 3 - - -
 
Date/Time
EDT
Temp
°C
App
Temp
°C
Dew
Point
Rel
Hum
%
Delta-T
°C
Wind Press
QNH
hPa
Press
MSL
hPa
Rain
since 9 am
mm
Dir
 
Spd
km/h
Gust
km/h
Spd
kts
Gust
kts
19/11:30pm 13.4 12.9 7.8 69 2.8 CALM 0 4 0 2 - - -
19/11:00pm 14.4 14.0 8.1 66 3.1 CALM 0 0 0 0 - - -
19/10:30pm 14.3 13.4 7.8 65 3.2 SE 2 4 1 2 - - -
19/10:00pm 14.4 13.8 7.5 63 3.4 CALM 0 0 0 0 - - -
19/09:30pm 14.7 13.3 7.3 61 3.6 S 4 4 2 2 - - -
19/09:00pm 15.1 13.7 7.2 59 3.9 SSE 4 7 2 4 - - -
19/08:30pm 15.7 13.6 6.7 55 4.4 SSW 7 13 4 7 - - -
19/08:00pm 16.3 13.0 6.2 51 4.9 SSW 13 19 7 10 - - -
19/07:30pm 16.7 13.2 5.6 48 5.3 SSW 13 20 7 11 - - -
19/07:00pm 16.8 13.4 5.7 48 5.4 SSW 13 20 7 11 - - -
19/06:30pm 16.5 11.6 6.9 53 4.7 WSW 22 35 12 19 - - -
19/06:00pm 16.3 10.4 7.5 56 4.4 WSW 28 32 15 17 - - -
19/05:30pm 16.2 10.3 7.4 56 4.4 WSW 28 32 15 17 - - -
19/05:00pm 16.2 10.7 7.7 57 4.3 WSW 26 30 14 16 - - -
19/04:30pm 16.3 11.2 7.8 57 4.3 WSW 24 28 13 15 - - -
19/04:00pm 16.2 11.7 6.9 54 4.6 WSW 20 24 11 13 - - -
19/03:30pm 16.1 11.3 7.3 56 4.4 WSW 22 26 12 14 - - -
19/03:00pm 16.0 11.1 6.7 54 4.6 WSW 22 26 12 14 - - -
19/02:30pm 15.7 10.9 7.5 58 4.1 WSW 22 26 12 14 - - -
19/02:00pm 15.5 10.7 7.3 58 4.1 WSW 22 28 12 15 - - -
19/01:30pm 15.4 10.2 7.2 58 4.0 WSW 24 32 13 17 - - -
19/01:00pm 15.4 10.4 7.9 61 3.8 WSW 24 30 13 16 - - -
19/12:30pm 15.6 10.8 7.4 58 4.1 WSW 22 32 12 17 - - -
19/12:00pm 15.5 10.4 7.8 60 3.8 WSW 24 30 13 16 - - -
19/11:30am 15.1 9.7 7.9 62 3.6 WSW 26 35 14 19 - - -
19/11:00am 14.7 9.2 9.3 70 2.8 W 28 33 15 18 - - -

Other Formats:

Comma delimited format used in spreadsheet applications
http://www.bom.gov.au/fwo/IDV60801/IDV60801.94871.axf

JavaScript Object Notation format (JSON) in row-major order
http://www.bom.gov.au/fwo/IDV60801/IDV60801.94871.json